Weather History for Jonesboro, AR

Change the Weather History Date:

Friday, September 30, 2011

  Actual Average Record
Temperature  
Mean Temperature 67 °F 66 °F  
Max Temperature 76 °F 78 °F 96 °F (1953)
Min Temperature 57 °F 55 °F 33 °F (1916)
Degree Days  
Heating Degree Days 0 2  
Month to date heating degree days 9 18  
Since 1 July heating degree days 9 18  
Cooling Degree Days 2 4  
Month to date cooling degree days 184 225  
Year to date cooling degree days 2172 1771  
Growing Degree Days 16 (Base 50)    
Moisture  
Dew Point 38 °F    
Average Humidity 38    
Maximum Humidity 53    
Minimum Humidity 23    
Precipitation  
Precipitation 0.00 in 0.14 in 3.35 in (1898)
Month to date precipitation 2.80 3.06  
Year to date precipitation 37.27 34.17  
Snow  
Snow 0.00 in - 0.00 in (2002)
Month to date snowfall  
Since 1 July snowfall  
Since 1 September snowfall  
Snow Depth -    
Sea Level Pressure  
Sea Level Pressure 30.08 in    
Wind  
Wind Speed 8 mph (NNW)    
Max Wind Speed 15 mph    
Max Gust Speed 25 mph    
Visibility 10 miles    
Events      
T = Trace of Precipitation, MM = Missing Value Source: NWS Daily Summary

Daily Weather History Graph

Daily Weather History Graph

Search for Another Location

Airport:

Trip Planner

Search our weather history database for the weather conditions in past years. The results will help you decide how hot, cold, wet, or windy it might be!

Date:

Astronomy

Sep. 30, 2011 Rise Set
Actual Time 6:56 AM CDT 6:48 PM CDT
Civil Twilight 6:31 AM CDT 7:13 PM CDT
Nautical Twilight 6:01 AM CDT 7:43 PM CDT
Astronomical Twilight 5:31 AM CDT 8:12 PM CDT
Moon 10:44 AM CDT (9/30) 9:00 PM CDT (9/30)
Length of Visible Light 12h 42m
Length of Day
11h 51m
Waxing Crescent, 15% of the Moon is Illuminated
Sep 30
Waxing Crescent
Oct 3
First Quarter
Oct 11
Full
Oct 19
Last Quarter
Oct 26
New

Hourly Weather History & Observations

Time (CDT) Temp. Dew Point Humidity Pressure Visibility Wind Dir Wind Speed Gust Speed Precip Events Conditions
12:53 AM 69.8 °F 35.6 °F 28% 29.99 in 10.0 mi North 12.7 mph 17.3 mph N/A   Clear
1:53 AM 68.0 °F 34.0 °F 28% 30.00 in 10.0 mi North 8.1 mph - N/A   Clear
2:53 AM 64.9 °F 36.0 °F 34% 30.01 in 10.0 mi NNW 12.7 mph 18.4 mph N/A   Clear
3:53 AM 62.1 °F 37.0 °F 39% 30.03 in 10.0 mi NNW 4.6 mph - N/A   Clear
4:53 AM 59.0 °F 37.9 °F 46% 30.04 in 10.0 mi NNW 4.6 mph - N/A   Clear
5:53 AM 59.0 °F 37.9 °F 46% 30.06 in 10.0 mi North 9.2 mph - N/A   Clear
6:53 AM 57.0 °F 37.9 °F 49% 30.08 in 10.0 mi NNW 5.8 mph - N/A   Clear
7:53 AM 57.2 °F 39.2 °F 51% 30.11 in 10.0 mi NW 6.9 mph - N/A   Clear
8:53 AM 62.6 °F 39.2 °F 42% 30.12 in 10.0 mi NNW 8.1 mph - N/A   Clear
9:53 AM 64.9 °F 39.9 °F 40% 30.13 in 10.0 mi North 13.8 mph 18.4 mph N/A   Clear
10:53 AM 69.1 °F 36.0 °F 30% 30.14 in 10.0 mi North 11.5 mph 19.6 mph N/A   Clear
11:53 AM 70.0 °F 36.0 °F 29% 30.14 in 10.0 mi NW 10.4 mph 18.4 mph N/A   Clear
12:53 PM 73.4 °F 35.6 °F 25% 30.13 in 10.0 mi North 10.4 mph 18.4 mph N/A   Clear
1:53 PM 75.0 °F 36.0 °F 24% 30.11 in 10.0 mi North 10.4 mph 18.4 mph N/A   Clear
2:53 PM 75.0 °F 35.1 °F 23% 30.09 in 10.0 mi NNW 13.8 mph 20.7 mph N/A   Clear
3:53 PM 75.0 °F 35.1 °F 23% 30.08 in 10.0 mi NNW 9.2 mph 18.4 mph N/A   Clear
4:53 PM 75.0 °F 36.0 °F 24% 30.06 in 10.0 mi North 11.5 mph 18.4 mph N/A   Clear
5:53 PM 73.0 °F 37.0 °F 27% 30.06 in 10.0 mi NNW 8.1 mph - N/A   Clear
6:53 PM 69.1 °F 39.0 °F 33% 30.05 in 10.0 mi NNW 3.5 mph - N/A   Clear
7:53 PM 64.0 °F 41.0 °F 43% 30.06 in 10.0 mi NNW 3.5 mph - N/A   Clear
8:53 PM 62.1 °F 41.0 °F 46% 30.08 in 10.0 mi NNW 3.5 mph - N/A   Clear
9:53 PM 60.8 °F 41.0 °F 48% 30.09 in 10.0 mi NNW 4.6 mph - N/A   Clear
10:53 PM 60.1 °F 41.0 °F 49% 30.10 in 10.0 mi NNW 4.6 mph - N/A   Clear
11:53 PM 59.0 °F 42.1 °F 53% 30.09 in 10.0 mi NW 4.6 mph - N/A   Clear